Other Public Products
Issued by NWS Grand Forks, ND

Home | Current Version | Previous Version | Text Only | Print | Product List | Glossary On
Versions: 1 2 3 4 5 6 7 8 9 10 11 12 13 14 15 16 17 18 19 20 21 22 23 24 25 26 27 28 29 30 31 32 33 34 35 36 37 38 39 40 41 42 43 44 45 46 47 48 49 50
000
FPUS83 KFGF 210131
OPUFGF
PRAIRIE TO PINES WEATHER ROUNDUP
NATIONAL WEATHER SERVICE EASTERN NORTH DAKOTA/GRAND FORKS ND
800 PM CDT MON OCT 20 2014

 **SATELLITE DATA USED TO AUGMENT SKY COVER AT AUTOMATED STATIONS**
 *****  WEATHER ACROSS EASTERN NORTH DAKOTA  *****

CITY           SKY/WX    TMP DP  RH WIND       PRES   REMARKS
GRAND FORKS    CLEAR     48  40  73 E6        30.03S
GRAND FORKS AF CLEAR     48  42  78 SE6       30.03S
GRAND CITY NWS   N/A     48 N/A N/A E6          N/A
BUXTON           N/A     53  42  65 E5          N/A
DEVILS LAKE    CLEAR     52  41  66 SE9       29.97S
FARGO          CLEAR     49  40  71 E7        30.03S
WAHPETON ARPT  CLEAR     52  36  54 E6        30.03F
$$

 *****  WEATHER ACROSS CENTRAL AND WESTERN NORTH DAKOTA  *****

CITY           SKY/WX    TMP DP  RH WIND       PRES   REMARKS
JAMESTOWN      CLEAR     54  40  59 SE8       29.99S
BISMARCK       CLEAR     54  33  45 E5        29.94S
MINOT          CLEAR     57  36  45 SE7       29.90S
MINOT AFB      CLEAR     51  38  61 SE9       29.89S
GARRISON         N/A     55  39  54 SE5       29.91S
WILLISTON      CLEAR     55  41  59 CALM      29.82S
DICKINSON      CLEAR     60  41  49 SE12      29.88S
HETTINGER      CLEAR     60  40  47 SE10      29.91F
$$

 *****  OTHER OBSERVATIONS NORTHEAST NORTH DAKOTA  *****

CITY           SKY/WX    TMP DP  RH WIND       PRES   REMARKS
WALHALLA       FAIR      45  41  87 SE8       30.02S
LANGDON        FAIR      46  39  76 SE13      30.00S
CAVALIER       FAIR      46  39  76 SE5       30.02F
GRAFTON        FAIR      45  39  81 SE9       30.03S
CANDO          FAIR      48  39  71 SE10      29.97S
FORT TOTTEN      N/A     59  37  44 SE7       29.95S
ROLLA          FAIR      52  39  62 SE13      29.97S
RUGBY          FAIR      54  36  50 SE7       29.94S
 ***** THE ABOVE OBSERVATIONS ARE NON NWS ARE NOT QUALITY
        CONTROLLED AND MAY MIS-REPORT RAIN FOR SNOW...
$$

 *****  OTHER OBSERVATIONS SOUTHEAST NORTH DAKOTA *****

CITY           SKY/WX    TMP DP  RH WIND       PRES   REMARKS
COOPERSTOWN    NOT AVBL
VALLEY CITY    FAIR      54  41  62 SE9       30.01S
OAKES            N/A     48  39  71 E9        30.01S
GWINNER        CLEAR     52  37  58 E7        30.03S
BUFFALO          N/A     47  36  67 E10         N/A
WYNDMERE         N/A     46  37  71 E3          N/A
 ***** THE ABOVE OBSERVATIONS ARE NON NWS ARE NOT QUALITY
       CONTROLLED AND MAY MIS-REPORT RAIN FOR SNOW...
$$

  *****  WEATHER ACROSS NORTHERN MINNESOTA  *****

CITY           SKY/WX    TMP DP  RH WIND       PRES   REMARKS
FLAG ISLAND    CLEAR     45  37  76 E3        30.09R
WARROAD        CLEAR     43  39  87 E6        30.09S
ROSEAU         CLEAR     43  37  81 E6        30.08S
HALLOCK        CLEAR     46  37  71 E6        30.04S
THF RVR FALLS  CLEAR     46  37  71 E8        30.06S
HALSTAD          N/A     46  34  62 NE5         N/A
FOSSTON        CLEAR     41  30  65 CALM      30.07S
BAUDETTE       CLEAR     39  35  86 NE3       30.09S
WASKISH        CLEAR     34  32  93 CALM      30.09S
CROOKSTON      CLEAR     48  39  71 SE5       30.06R
$$
  *****  WEATHER ACROSS CENTRAL AND WEST MINNESOTA  *****

CITY           SKY/WX    TMP DP  RH WIND       PRES   REMARKS
BEMIDJI        CLEAR     39  36  89 NE3       30.07S
PARK RAPIDS    CLEAR     48  39  71 NE8       30.06R
WADENA         CLEAR     45  36  70 CALM      30.05R
DETROIT LAKES  CLEAR     50  37  62 NE3       30.06S
MOORHEAD       CLEAR     50  39  66 E6        30.05S
FERGUS FALLS   CLEAR     52  34  50 CALM      30.05S
ELBOW LAKE     FAIR      49  40  71 NE3       30.04S
MORRIS MN      CLEAR     50  37  62 NE9       30.03S
STAPLES        CLEAR     48  36  61 CALM      30.06R
WHEATON        CLEAR     50  37  62 E5        30.05S
$$
  *****  WEATHER ELSEWHERE ACROSS MINNESOTA  *****

CITY           SKY/WX    TMP DP  RH WIND       PRES   REMARKS
DULUTH         CLOUDY    47  36  65 N3        30.08R
INTRNTL FALLS  CLOUDY    45  36  70 NE5       30.10R
ELY            CLOUDY    43  36  75 CALM      30.09R
CLOQUET        CLOUDY    46  36  66 N5        30.08S
BRAINERD       CLEAR     45  38  76 NE6       30.07R
HIBBING        CLOUDY    46  35  65 N3        30.09R
ALEXANDRIA     CLEAR     53  37  54 N5        30.05S
SAINT CLOUD    FAIR      53  39  59 E3        30.05R
MINNEAPOLIS    CLEAR     53  39  59 N3        30.04R
$$

  *****  WEATHER ACROSS SOUTH DAKOTA  *****

CITY           SKY/WX    TMP DP  RH WIND       PRES   REMARKS
SIOUX FALLS    CLEAR     53  37  54 CALM      30.03S
BROOKINGS      NOT AVBL
WATERTOWN      CLEAR     52  36  54 CALM      30.03S
HURON          CLEAR     57  34  41 SE6       30.02R
SISSETON         N/A     43  37  79 CALM      30.02S
ABERDEEN       CLEAR     49  34  56 E6        30.01S
MITCHELL       CLEAR     60  36  40 SE5       30.03S
PIERRE         CLEAR     61  40  45 E12       29.94S
MOBRIDGE       CLEAR     63  34  33 SE14      29.93S
RAPID CITY     CLEAR     60  45  57 CALM      29.91S
$$

  *****  SOME WEATHER IN NEARBY STATES *****

CITY           SKY/WX    TMP DP  RH WIND       PRES   REMARKS
GLASGOW MT     CLEAR     56  40  55 SE9       29.75F
GREAT FALLS MT CLEAR     63  34  33 S10       29.74F
CHEYENNE WY    CLEAR     58  35  42 SW6       30.09S
SCOTTSBLUFF NE CLEAR     61  40  45 SE9       29.98S
OMAHA NE       CLEAR     53  46  77 CALM      30.05R
DES MOINES IA  CLEAR     61  39  44 NW3       30.03R
DAVENPORT IA   CLEAR     53  40  61 N6        29.98R
CHICAGO IL     MOCLDY    53  45  74 N9        29.97R
EAU CLAIRE WI  CLOUDY    51  38  60 N6        30.04R
LA CROSSE WI   CLEAR     51  40  65 N3        30.03R
$$

  *****  SOME NATIONAL WEATHER *****

CITY           SKY/WX    TMP DP  RH WIND       PRES   REMARKS
LA GUARDIA NY  MOCLDY    57  39  51 S6        29.98S
RALEIGH NC     PTCLDY    56  49  77 CALM      30.01S
ATLANTA GA     MOCLDY    64  51  62 W3        30.01S
NEW ORLEANS LA PTCLDY    70  54  56 N6        30.01R
OKLAHOMA CITY  PTCLDY    71  61  70 E7        30.02R
ALBUQUERQUE NM CLOUDY    61  51  70 S3        30.15S
SALT LAKE CITY PTCLDY    68  39  34 W5        29.90F
LOS ANGELES CA PTCLDY    68  62  81 W12       29.87S
BOISE ID       MOCLDY    69  40  34 W6        29.71F
SEATTLE WA     PTCLDY    59  53  80 S10       29.77S
$$

*** WEATHER ACROSS MANITOBA...SASKATCHEWAN AND ONTARIO ***
                ***ONTARIO***

CITY           SKY/WX    TMP DP  RH WIND       PRES   REMARKS
GERALDTON      PTCLDY    32  32 100 NE6       30.12R
THUNDER BAY    PTCLDY    34  32  93 CALM      30.12R
SIOUX LOOKOUT  CLOUDY    37  32  81 E3        30.14R
TORONTO        CLOUDY    52  50  93 SW2       29.80S
BIG TROUT LK   CLOUDY    32  30  93 CALM      30.18R
PICKLE LAKE    CLOUDY    34  32  93 E2        30.15R
DRYDEN         CLOUDY    39  34  81 E5        30.12R
KENORA         CLEAR     39  34  81 E7        30.10
$$
                *** MANITOBA***

CITY           SKY/WX    TMP DP  RH WIND       PRES   REMARKS
BRANDON        CLEAR     45  41  87 E12       29.95S
DAUPHIN        CLEAR     43  41  93 SE8       29.90F
ISLAND LAKE    CLOUDY    37  34  87 SE16      30.09F
PILOT MOUND      N/A     50  41  71 SE13        N/A
THE PAS        CLEAR     43  39  87 SE14G21   29.81S
THOMPSON       CLOUDY   N/A N/A N/A SE10        N/A
WINNIPEG       CLEAR     45  37  76 SE9       30.04F
LYNN LAKE      CLOUDY    37  36  93 SE15G22   29.76F
CHURCHILL      CLOUDY    34  32  93 S13       30.05F WCI  25
GILLAM         CLOUDY    37  32  81 S7        30.05F
$$
                ***SASKATCHEWAN***

CITY           SKY/WX    TMP DP  RH WIND       PRES   REMARKS
ESTEVAN        CLEAR     55  43  62 SE10      29.83
KINDERSLEY     PTCLDY    57  36  44 SE12      29.62F
LLOYDMINSTER   PTCLDY    59  32  36 S8        29.57S
PRINCE ALBERT  CLEAR     57  43  58 S6        29.63F
REGINA         CLEAR     57  43  58 SE10      29.76S
YORKTON        CLEAR     57  43  58 SE12      29.80S


USA.gov is the U.S. government's official web portal to all federal, state and local government web resources and services.